Regional Weather Roundup
Issued by NWS Goodland, KS

Home | Current Version | Previous Version | Text Only | Print | Product List | Glossary On
Versions: 1 2 3 4 5 6 7 8 9 10 11 12 13 14 15 16 17 18 19 20 21 22 23 24 25 26 27 28 29 30 31 32 33 34 35 36 37 38 39 40 41 42 43 44 45 46 47 48 49 50
000
ASUS43 KGLD 020308
RWRGLD

GOODLAND FORECAST AREA HOURLY WEATHER ROUNDUP
NATIONAL WEATHER SERVICE GOODLAND KS
900 PM MDT FRI AUG 01 2014

...OFFICIAL OBSERVATIONS...

CITY           SKY/WX    TMP DP  RH WIND       PRES   REMARKS
GOODLAND KS    PTCLDY    71  52  50 S8        30.18R
HILL CITY KS   PTCLDY    72  54  53 NE5       30.11R
IMPERIAL NEB   PTCLDY    70  56  61 SE6       30.14R
MCCOOK NEB     MOCLDY    74  58  57 E9        30.12R
AKRON CO       CLEAR     69  53  56 SE9       30.22R
BURLINGTON CO  PTCLDY    69  52  54 S8        30.22R
LIMON CO       PTCLDY    65  47  52 S7        30.28R
$$

...UNOFFICIAL OBSERVATIONS...

CITY           SKY/WX    TMP DP  RH WIND       PRES   REMARKS
COLBY KS       CLEAR     72  55  56 SE7       30.18R
GOVE KS          N/A     73  32  22 MISG        N/A
NORTON KS      CLEAR     70  55  60 E5        30.11R
OBERLIN KS     FAIR      75  50  41 E7        30.13R
ST FRANCIS KS  RAIN      72  54  53 S10       30.16R
TRIBUNE KS     MOCLDY    72 N/A N/A S5        30.20R
KIT CARSON CO    N/A     71  52  51 CALM        N/A
WRAY CO          N/A     73  50  43 CALM      30.17R
YUMA CO          N/A     69  55  60 SE7         N/A
$$


USA.gov is the U.S. government's official web portal to all federal, state and local government web resources and services.